Location: Ballingbuur
(53.0000°N, 5.7667°E)
Time: 20:50:03
(UTC+00:00)

ERBS - Pass Details

Date: 29 November 2020
Orbit: 403 x 423 km, 57.0° (Epoch: 24 January)

Event Time Altitude Azimuth Distance (km) Brightness Sun altitude
Exits shadow 06:11:13 16° 294° (WNW) 1,166 3.8 -10.5°
Maximum altitude 06:13:31 40° 359° (N) 636 3.0 -10.2°
Drops below altitude 10° 06:16:42 10° 70° (ENE) 1,502 5.8 -9.7°
Sets 06:18:52 0° 79° (ENE) 2,370 7.1 -9.4°
